Location: Unspecified
(0.0000°N, 0.0000°E)
Time: 04:46:35
(UTC+00:00)

Vanguard 2 Rocket - All Passes

Search period start: 05 May 2016 00:00
Search period end: 15 May 2016 00:00
Orbit: 554 x 3330 km, 32.9° (Epoch: 03 May)

Date Brightness Start Highest point End Pass type
(mag) Time Alt. Az. Time Alt. Az. Time Alt. Az.
05 May - 00:14:23 10° WSW 00:25:35 47° NW 00:32:00 10° NNE night (unlit)
05 May - 09:22:19 10° NNW 09:27:50 29° NE 09:36:26 10° E daylight
05 May - 11:33:26 10° WNW 11:41:53 73° SSW 11:57:19 10° SE daylight
05 May - 13:49:13 10° WSW 14:00:08 31° SSW 14:15:47 10° SE daylight
05 May - 16:11:19 10° SW 16:23:04 19° S 16:35:50 10° SE daylight
05 May - 18:33:59 10° SSW 18:48:04 22° SSE 18:59:59 10° ESE visible
05 May - 20:52:46 10° SW 21:09:22 42° SSE 21:19:53 10° E visible
05 May - 23:11:47 10° WSW 23:26:05 76° NW 23:33:50 10° NE visible
06 May - 01:35:21 10° WNW 01:39:28 14° NW 01:42:46 10° N night (unlit)
06 May - 08:25:48 10° NNE 08:28:46 14° NE 08:32:25 10° ENE daylight
06 May - 10:34:47 10° NW 10:41:54 81° NE 10:55:08 10° ESE daylight
06 May - 12:48:48 10° W 12:58:26 38° SSW 13:13:48 10° SE daylight
06 May - 15:08:36 10° SW 15:19:38 21° S 15:32:57 10° SSE daylight
06 May - 17:31:35 10° SSW 17:44:37 20° S 17:56:56 10° SE daylight
06 May - 19:50:50 10° SW 20:07:34 34° SSE 20:19:26 10° E visible
06 May - 22:09:23 10° SW 22:25:58 78° SE 22:35:09 10° ENE visible
07 May - 00:30:56 10° W 00:40:16 28° NW 00:46:14 10° NNE night (unlit)
07 May - 09:36:36 10° NW 09:42:31 50° NE 09:52:51 10° ESE daylight
07 May - 11:49:07 10° W 11:57:26 48° SSW 12:11:54 10° SE daylight
07 May - 14:06:43 10° WSW 14:16:51 23° SSW 14:30:20 10° SSE daylight
07 May - 16:29:08 10° SW 16:40:52 19° S 16:53:10 10° SE daylight
07 May - 18:48:59 10° SSW 19:05:06 28° SSE 19:18:00 10° ESE visible
07 May - 21:07:12 10° SW 21:25:10 60° SSE 21:35:55 10° ENE visible
07 May - 23:27:30 10° WSW 23:40:53 49° NW 23:48:32 10° NNE visible
08 May - 08:39:00 10° NNW 08:43:34 26° NE 08:50:21 10° E daylight
08 May - 10:50:01 10° WNW 10:57:07 65° SSW 11:10:05 10° SE daylight
08 May - 13:05:42 10° WSW 13:14:47 27° SSW 13:28:04 10° SSE daylight
08 May - 15:26:50 10° SW 15:37:14 18° S 15:49:09 10° SE daylight
08 May - 17:47:16 10° SSW 18:02:04 24° SSE 18:15:26 10° ESE daylight
08 May - 20:05:14 10° SW 20:23:41 47° SSE 20:36:02 10° E visible
08 May - 22:24:31 10° WSW 22:41:01 73° NW 22:50:13 10° NE visible
09 May - 00:48:53 10° WNW 00:55:07 17° NW 00:59:45 10° N night (unlit)
09 May - 07:42:59 10° NNE 07:44:40 11° NE 07:46:33 10° ENE daylight
09 May - 09:51:25 10° NW 09:57:25 86° NE 10:08:22 10° SE daylight
09 May - 12:05:27 10° W 12:13:26 32° SSW 12:26:09 10° SE daylight
09 May - 14:24:52 10° SW 14:34:03 18° S 14:45:29 10° SSE daylight
09 May - 16:45:42 10° SSW 16:58:36 20° SSE 17:11:39 10° SE daylight
09 May - 19:03:33 10° SW 19:21:35 38° SSE 19:35:17 10° E visible
09 May - 21:21:55 10° SW 21:40:31 84° SE 21:51:23 10° ENE visible
09 May - 23:44:08 10° W 23:55:35 31° NW 00:02:48 10° NNE visible
10 May - 08:53:15 10° NW 08:58:17 50° NE 09:06:40 10° ESE daylight
10 May - 11:05:51 10° W 11:12:46 40° SSW 11:24:33 10° SE daylight
10 May - 13:23:25 10° SW 13:31:34 19° S 13:42:29 10° SSE daylight
10 May - 15:44:16 10° SSW 15:54:59 18° S 16:06:54 10° SE daylight
10 May - 18:02:11 10° SSW 18:18:56 31° SSE 18:33:28 10° ESE visible
10 May - 20:19:44 10° SW 20:39:20 65° SSE 20:51:57 10° ENE visible
10 May - 22:40:19 10° WSW 22:55:47 50° NW 23:04:53 10° NNE visible
11 May - 07:55:40 10° NNW 07:59:30 24° NE 08:04:48 10° E daylight
11 May - 10:06:46 10° WNW 10:12:42 55° SSW 10:23:14 10° SE daylight
11 May - 12:22:36 10° WSW 12:29:52 22° SSW 12:40:14 10° SSE daylight
11 May - 14:42:57 10° SSW 14:51:37 16° S 15:01:54 10° SE daylight
11 May - 17:01:07 10° SSW 17:15:52 25° SSE 17:30:20 10° ESE daylight
11 May - 19:18:00 10° SW 19:37:32 51° SSE 19:51:47 10° ENE visible
11 May - 21:37:07 10° WSW 21:55:30 71° NW 22:06:23 10° NE visible
12 May - 00:02:03 10° W 00:10:30 20° NW 00:16:32 10° N visible
12 May - 09:08:09 10° WNW 09:13:15 85° SW 09:22:07 10° SE daylight
12 May - 11:22:25 10° WSW 11:28:51 25° SSW 11:38:38 10° SSE daylight
12 May - 13:41:44 10° SW 13:48:47 15° S 13:57:31 10° SSE daylight
12 May - 16:00:23 10° SSW 16:12:33 20° SSE 16:25:48 10° ESE daylight
12 May - 18:16:42 10° SW 18:35:13 41° SSE 18:50:41 10° E visible
12 May - 20:34:32 10° SW 20:54:34 87° SE 21:07:19 10° NE visible
12 May - 22:57:01 10° W 23:10:33 33° NW 23:19:11 10° NNE visible
13 May - 08:09:56 10° NW 08:14:18 51° NE 08:21:03 10° ESE daylight
13 May - 10:22:48 10° W 10:28:28 32° SSW 10:37:32 10° SE daylight
13 May - 12:40:43 10° SW 12:46:40 15° S 12:54:19 10° SSE daylight
13 May - 14:59:55 10° SSW 15:09:15 17° SSE 15:20:05 10° SE daylight
13 May - 17:15:52 10° SSW 17:32:31 33° SSE 17:48:24 10° E daylight
13 May - 19:32:34 10° SW 19:53:02 69° SE 20:07:37 10° ENE visible
13 May - 21:52:59 10° WSW 22:10:17 50° NW 22:21:01 10° NE visible
14 May - 00:22:14 10° NW 00:25:50 12° NW 00:28:58 10° NNW visible
14 May - 07:12:14 10° NNW 07:15:35 23° NE 07:19:51 10° E daylight
14 May - 09:23:39 10° W 09:28:38 44° SSW 09:36:50 10° SE daylight
14 May - 11:40:01 10° SW 11:45:18 17° SSW 11:52:20 10° SSE daylight
14 May - 13:59:43 10° SSW 14:06:17 14° S 14:14:03 10° SSE daylight
14 May - 16:15:30 10° SSW 16:29:36 26° SSE 16:44:41 10° ESE daylight
14 May - 18:31:11 10° SW 18:50:58 55° SSE 19:07:07 10° ENE visible
14 May - 20:49:48 10° WSW 21:09:31 70° NW 21:22:16 10° NE visible
14 May - 23:14:56 10° W 23:25:35 22° NW 23:33:06 10° N visible
